,,Stat5,,Stat1,,Stat2,,Stat3,,Stat4,,Wind1,,Wind1,
time,status,PA1M_AVG,status,PR1M_SUM,status,RH1M_AVG,status,SR1M_AVG,status,TA1M_AVG,status,W1dAve1m,status,W1sAve1m,
2000-04-29, 00:00:00,VALID,918.009,VALID,0,VALID,96.2655,VALID,0,VALID,20.8168,VALID,130,VALID,0,
2000-04-29, 00:01:00,VALID,918.005,VALID,0,VALID,96.2376,VALID,-0.0509425,VALID,20.8273,VALID,110,VALID,0,
2000-04-29, 00:02:00,VALID,918.029,VALID,0,VALID,96.0328,VALID,0.0169808,VALID,20.8268,VALID,99,VALID,0,
2000-04-29, 00:03:00,VALID,918.029,VALID,0,VALID,95.8841,VALID,0,VALID,20.8104,VALID,81,VALID,0,
2000-04-29, 00:04:00,VALID,918.031,VALID,0,VALID,95.7404,VALID,-0.0169808,VALID,20.7939,VALID,78,VALID,0,
2000-04-29, 00:05:00,VALID,918.05,VALID,0,VALID,95.6069,VALID,-0.0169808,VALID,20.8042,VALID,71,VALID,0,
2000-04-29, 00:06:00,VALID,918.032,VALID,0,VALID,95.6984,VALID,0,VALID,20.8101,VALID,71,VALID,0,
2000-04-29, 00:07:00,VALID,918.042,VALID,0,VALID,95.8892,VALID,0,VALID,20.8206,VALID,71,VALID,0,
2000-04-29, 00:08:00,VALID,918.037,VALID,0,VALID,96.0087,VALID,-0.0169808,VALID,20.8173,VALID,71,VALID,0,
2000-04-29, 00:09:00,VALID,918.03,VALID,0,VALID,96.1587,VALID,0,VALID,20.8273,VALID,71,VALID,0,
2000-04-29, 00:10:00,VALID,918.032,VALID,0,VALID,96.2935,VALID,-0.0169808,VALID,20.837,VALID,71,VALID,0,
2000-04-29, 00:11:00,VALID,918.028,VALID,0,VALID,96.3698,VALID,0.0169808,VALID,20.8273,VALID,71,VALID,0,
2000-04-29, 00:12:00,VALID,918.028,VALID,0,VALID,96.422,VALID,0,VALID,20.8338,VALID,71,VALID,0,
2000-04-29, 00:13:00,VALID,918.023,VALID,0,VALID,96.4512,VALID,0,VALID,20.8472,VALID,71,VALID,0,
2000-04-29, 00:14:00,VALID,918.036,VALID,0,VALID,96.5504,VALID,-0.0169808,VALID,20.83,VALID,71,VALID,0,
2000-04-29, 00:15:00,VALID,918.044,VALID,0,VALID,96.5364,VALID,0,VALID,20.8235,VALID,71,VALID,0,
2000-04-29, 00:16:00,VALID,918.053,VALID,0,VALID,96.4868,VALID,-0.0169808,VALID,20.8136,VALID,74,VALID,0,
2000-04-29, 00:17:00,VALID,918.051,VALID,0,VALID,96.4944,VALID,-0.0169808,VALID,20.8203,VALID,90,VALID,0,
2000-04-29, 00:18:00,VALID,918.052,VALID,0,VALID,96.4245,VALID,-0.0169808,VALID,20.8206,VALID,121,VALID,0,
2000-04-29, 00:19:00,VALID,918.044,VALID,0,VALID,96.319,VALID,0,VALID,20.8012,VALID,121,VALID,0,
2000-04-29, 00:20:00,VALID,918.039,VALID,0,VALID,96.4194,VALID,-0.0169808,VALID,20.8047,VALID,121,VALID,0,
2000-04-29, 00:21:00,VALID,918.024,VALID,0,VALID,96.4627,VALID,-0.0169808,VALID,20.7982,VALID,121,VALID,0,
2000-04-29, 00:22:00,VALID,918.012,VALID,0,VALID,96.338,VALID,0,VALID,20.8012,VALID,121,VALID,0,
2000-04-29, 00:23:00,VALID,918.006,VALID,0,VALID,96.277,VALID,-0.0169808,VALID,20.7853,VALID,122,VALID,0,
2000-04-29, 00:24:00,VALID,917.996,VALID,0,VALID,96.4245,VALID,-0.0339617,VALID,20.792,VALID,122,VALID,0,
2000-04-29, 00:25:00,VALID,917.987,VALID,0,VALID,96.6496,VALID,0,VALID,20.8009,VALID,122,VALID,0,
2000-04-29, 00:26:00,VALID,917.987,VALID,0,VALID,96.5504,VALID,-0.0169808,VALID,20.795,VALID,122,VALID,0,
2000-04-29, 00:27:00,VALID,917.995,VALID,0,VALID,96.3177,VALID,-0.0169808,VALID,20.7788,VALID,119,VALID,0,
2000-04-29, 00:28:00,VALID,917.99,VALID,0,VALID,96.4398,VALID,-0.0169808,VALID,20.795,VALID,108,VALID,0,
2000-04-29, 00:29:00,VALID,917.983,VALID,0,VALID,96.4448,VALID,0,VALID,20.8044,VALID,98,VALID,0,
2000-04-29, 00:30:00,VALID,917.979,VALID,0,VALID,96.5224,VALID,-0.0169808,VALID,20.834,VALID,98,VALID,0,
2000-04-29, 00:31:00,VALID,917.967,VALID,0,VALID,96.5339,VALID,0,VALID,20.8268,VALID,98,VALID,0,
2000-04-29, 00:32:00,VALID,917.957,VALID,0,VALID,96.5211,VALID,0.0169808,VALID,20.8373,VALID,98,VALID,0,
2000-04-29, 00:33:00,VALID,917.937,VALID,0,VALID,96.5835,VALID,-0.0169808,VALID,20.8303,VALID,1,VALID,0,
2000-04-29, 00:34:00,VALID,917.926,VALID,0,VALID,96.8149,VALID,0,VALID,20.8168,VALID,314,VALID,0,
2000-04-29, 00:35:00,VALID,917.923,VALID,0,VALID,97.0145,VALID,0,VALID,20.8138,VALID,316,VALID,0,
2000-04-29, 00:36:00,VALID,917.912,VALID,0,VALID,97.1786,VALID,0,VALID,20.8074,VALID,316,VALID,0,
2000-04-29, 00:37:00,VALID,917.903,VALID,0,VALID,97.3235,VALID,0,VALID,20.8009,VALID,316,VALID,0,
2000-04-29, 00:38:00,VALID,917.912,VALID,0,VALID,97.4291,VALID,-0.0169808,VALID,20.7853,VALID,316,VALID,0,
2000-04-29, 00:39:00,VALID,917.909,VALID,0,VALID,97.4774,VALID,0,VALID,20.7624,VALID,313,VALID,0,
2000-04-29, 00:40:00,VALID,917.918,VALID,0,VALID,97.4977,VALID,0,VALID,20.753,VALID,313,VALID,0,
2000-04-29, 00:41:00,VALID,917.919,VALID,0,VALID,97.5613,VALID,-0.0339617,VALID,20.7495,VALID,314,VALID,0,
2000-04-29, 00:42:00,VALID,917.925,VALID,0,VALID,97.5779,VALID,0,VALID,20.7468,VALID,314,VALID,0,
2000-04-29, 00:43:00,VALID,917.925,VALID,0,VALID,97.6821,VALID,-0.0169808,VALID,20.7597,VALID,314,VALID,0,
2000-04-29, 00:44:00,VALID,917.924,VALID,0,VALID,97.7368,VALID,-0.0339617,VALID,20.7721,VALID,315,VALID,0,
2000-04-29, 00:45:00,VALID,917.923,VALID,0,VALID,97.6173,VALID,0.0169808,VALID,20.7527,VALID,316,VALID,0,
2000-04-29, 00:46:00,VALID,917.911,VALID,0,VALID,97.4723,VALID,0,VALID,20.7331,VALID,316,VALID,0,
2000-04-29, 00:47:00,VALID,917.906,VALID,0,VALID,97.4799,VALID,0,VALID,20.7495,VALID,316,VALID,0,
2000-04-29, 00:48:00,VALID,917.889,VALID,0,VALID,97.5206,VALID,-0.0339617,VALID,20.7656,VALID,316,VALID,0,
2000-04-29, 00:49:00,VALID,917.885,VALID,0,VALID,97.5448,VALID,-0.0169808,VALID,20.7818,VALID,316,VALID,0,
2000-04-29, 00:50:00,VALID,917.869,VALID,0,VALID,97.5232,VALID,0,VALID,20.7683,VALID,316,VALID,0,
2000-04-29, 00:51:00,VALID,917.871,VALID,0,VALID,97.5346,VALID,0,VALID,20.7589,VALID,316,VALID,0,
2000-04-29, 00:52:00,VALID,917.86,VALID,0,VALID,97.5486,VALID,-0.0339617,VALID,20.7729,VALID,316,VALID,0,
2000-04-29, 00:53:00,VALID,917.857,VALID,0,VALID,97.5422,VALID,-0.0679233,VALID,20.7769,VALID,316,VALID,0,
2000-04-29, 00:54:00,VALID,917.862,VALID,0,VALID,97.4914,VALID,-0.0849042,VALID,20.7605,VALID,316,VALID,0,
2000-04-29, 00:55:00,VALID,917.852,VALID,0,VALID,97.5003,VALID,-0.0509425,VALID,20.764,VALID,316,VALID,0,
2000-04-29, 00:56:00,VALID,917.862,VALID,0,VALID,97.5155,VALID,-0.0679233,VALID,20.7769,VALID,316,VALID,0,
2000-04-29, 00:57:00,VALID,917.858,VALID,0,VALID,97.6058,VALID,-0.0509425,VALID,20.7898,VALID,316,VALID,0,
2000-04-29, 00:58:00,VALID,917.864,VALID,0,VALID,97.6948,VALID,-0.0679233,VALID,20.8149,VALID,316,VALID,0,
2000-04-29, 00:59:00,VALID,917.877,VALID,0,VALID,97.7114,VALID,-0.101885,VALID,20.8348,VALID,316,VALID,0,
2000-04-29, 01:00:00,VALID,917.866,VALID,0,VALID,97.6427,VALID,-0.0679233,VALID,20.838,VALID,240,VALID,0,
2000-04-29, 01:01:00,VALID,917.871,VALID,0,VALID,97.5435,VALID,-0.0339617,VALID,20.845,VALID,161,VALID,0,
2000-04-29, 01:02:00,VALID,917.877,VALID,0,VALID,97.4977,VALID,-0.101885,VALID,20.8415,VALID,161,VALID,0,
2000-04-29, 01:03:00,VALID,917.862,VALID,0,VALID,97.4151,VALID,-0.0169808,VALID,20.841,VALID,160,VALID,0,
2000-04-29, 01:04:00,VALID,917.843,VALID,0,VALID,97.335,VALID,-0.0679233,VALID,20.841,VALID,159,VALID,0,
2000-04-29, 01:05:00,VALID,917.841,VALID,0,VALID,97.2027,VALID,-0.0339617,VALID,20.8413,VALID,153,VALID,0.159071,
2000-04-29, 01:06:00,VALID,917.833,VALID,0,VALID,97.0336,VALID,-0.0509425,VALID,20.8386,VALID,150,VALID,0.631968,
2000-04-29, 01:07:00,VALID,917.828,VALID,0,VALID,96.7755,VALID,-0.0509425,VALID,20.8311,VALID,144,VALID,0.746916,
2000-04-29, 01:08:00,VALID,917.821,VALID,0,VALID,96.5339,VALID,0.0339617,VALID,20.8338,VALID,154,VALID,0.719151,
2000-04-29, 01:09:00,VALID,917.822,VALID,0,VALID,96.4309,VALID,0.0339617,VALID,20.8074,VALID,158,VALID,0.632212,
2000-04-29, 01:10:00,VALID,917.825,VALID,0,VALID,96.3838,VALID,0.0509425,VALID,20.7818,VALID,163,VALID,0.436022,
2000-04-29, 01:11:00,VALID,917.833,VALID,0,VALID,96.4448,VALID,0.0339617,VALID,20.7616,VALID,180,VALID,0,
2000-04-29, 01:12:00,VALID,917.825,VALID,0,VALID,96.53,VALID,0,VALID,20.7654,VALID,202,VALID,0,
2000-04-29, 01:13:00,VALID,917.822,VALID,0,VALID,96.5835,VALID,0.0169808,VALID,20.7525,VALID,218,VALID,0,
2000-04-29, 01:14:00,VALID,917.807,VALID,0,VALID,96.6954,VALID,0.0339617,VALID,20.7562,VALID,245,VALID,0,
2000-04-29, 01:15:00,VALID,917.785,VALID,0,VALID,96.7437,VALID,0.0339617,VALID,20.7425,VALID,245,VALID,0,
2000-04-29, 01:16:00,VALID,917.781,VALID,0,VALID,96.6826,VALID,0.0169808,VALID,20.7336,VALID,245,VALID,0,
2000-04-29, 01:17:00,VALID,917.755,VALID,0,VALID,96.6725,VALID,0,VALID,20.7331,VALID,245,VALID,0,
2000-04-29, 01:18:00,VALID,917.734,VALID,0,VALID,96.7055,VALID,0.0169808,VALID,20.7497,VALID,245,VALID,0,
2000-04-29, 01:19:00,VALID,917.729,VALID,0,VALID,96.7449,VALID,0.0169808,VALID,20.7624,VALID,245,VALID,0,
2000-04-29, 01:20:00,VALID,917.716,VALID,0,VALID,96.6801,VALID,0.0169808,VALID,20.7525,VALID,245,VALID,0,
2000-04-29, 01:21:00,VALID,917.699,VALID,0,VALID,96.6254,VALID,0.0339617,VALID,20.7656,VALID,245,VALID,0,
2000-04-29, 01:22:00,VALID,917.705,VALID,0,VALID,96.6305,VALID,0.0339617,VALID,20.7786,VALID,245,VALID,0,
2000-04-29, 01:23:00,VALID,917.697,VALID,0,VALID,96.6013,VALID,0.0169808,VALID,20.7818,VALID,245,VALID,0,
2000-04-29, 01:24:00,VALID,917.7,VALID,0,VALID,96.4398,VALID,0.0339617,VALID,20.7718,VALID,245,VALID,0,
2000-04-29, 01:25:00,VALID,917.703,VALID,0,VALID,96.5046,VALID,0,VALID,20.7689,VALID,247,VALID,0,
2000-04-29, 01:26:00,VALID,917.703,VALID,0,VALID,96.6648,VALID,0.0169808,VALID,20.7753,VALID,248,VALID,0,
2000-04-29, 01:27:00,VALID,917.712,VALID,0,VALID,96.8314,VALID,0.0339617,VALID,20.778,VALID,248,VALID,0,
2000-04-29, 01:28:00,VALID,917.712,VALID,0,VALID,96.9586,VALID,0.0509425,VALID,20.7751,VALID,248,VALID,0,
2000-04-29, 01:29:00,VALID,917.702,VALID,0,VALID,97.0171,VALID,0.0509425,VALID,20.7681,VALID,248,VALID,0,
2000-04-29, 01:30:00,VALID,917.7,VALID,0,VALID,97.0768,VALID,0.0509425,VALID,20.7885,VALID,248,VALID,0,
2000-04-29, 01:31:00,VALID,917.707,VALID,0,VALID,97.1697,VALID,0.0679233,VALID,20.7947,VALID,217,VALID,0,
2000-04-29, 01:32:00,VALID,917.714,VALID,0,VALID,97.143,VALID,0.0679233,VALID,20.7883,VALID,240,VALID,0,
2000-04-29, 01:33:00,VALID,917.726,VALID,0,VALID,97.1862,VALID,0.0679233,VALID,20.785,VALID,240,VALID,0,
2000-04-29, 01:34:00,VALID,917.733,VALID,0,VALID,97.2625,VALID,0.0509425,VALID,20.7686,VALID,240,VALID,0,
2000-04-29, 01:35:00,VALID,917.725,VALID,0,VALID,97.3146,VALID,0.0509425,VALID,20.7689,VALID,240,VALID,0,
2000-04-29, 01:36:00,VALID,917.737,VALID,0,VALID,97.4024,VALID,0.0339617,VALID,20.7748,VALID,240,VALID,0,
2000-04-29, 01:37:00,VALID,917.729,VALID,0,VALID,97.4532,VALID,0,VALID,20.7821,VALID,240,VALID,0,
2000-04-29, 01:38:00,VALID,917.741,VALID,0,VALID,97.5003,VALID,-0.0339617,VALID,20.8028,VALID,240,VALID,0,
2000-04-29, 01:39:00,VALID,917.745,VALID,0,VALID,97.4609,VALID,-0.0509425,VALID,20.8025,VALID,240,VALID,0,
2000-04-29, 01:40:00,VALID,917.746,VALID,0,VALID,97.4456,VALID,-0.0509425,VALID,20.7828,VALID,240,VALID,0,
2000-04-29, 01:41:00,VALID,917.737,VALID,0,VALID,97.4876,VALID,-0.0339617,VALID,20.7828,VALID,240,VALID,0,
2000-04-29, 01:42:00,VALID,917.721,VALID,0,VALID,97.5181,VALID,-0.0169808,VALID,20.7925,VALID,240,VALID,0,
2000-04-29, 01:43:00,VALID,917.711,VALID,0,VALID,97.5524,VALID,-0.0169808,VALID,20.8025,VALID,240,VALID,0,
2000-04-29, 01:44:00,VALID,917.708,VALID,0,VALID,97.5995,VALID,-0.0339617,VALID,20.8014,VALID,240,VALID,0,
2000-04-29, 01:45:00,VALID,917.705,VALID,0,VALID,97.5804,VALID,-0.0169808,VALID,20.8251,VALID,240,VALID,0,
2000-04-29, 01:46:00,VALID,917.693,VALID,0,VALID,97.5422,VALID,-0.0849042,VALID,20.8114,VALID,240,VALID,0,
2000-04-29, 01:47:00,VALID,917.698,VALID,0,VALID,97.5079,VALID,-0.0679233,VALID,20.8316,VALID,198,VALID,0,
2000-04-29, 01:48:00,VALID,917.694,VALID,0,VALID,97.4672,VALID,-0.0169808,VALID,20.858,VALID,174,VALID,0,
2000-04-29, 01:49:00,VALID,917.7,VALID,0,VALID,97.396,VALID,-0.0169808,VALID,20.8343,VALID,145,VALID,0,
2000-04-29, 01:50:00,VALID,917.69,VALID,0,VALID,97.2638,VALID,-0.0679233,VALID,20.8343,VALID,134,VALID,0,
2000-04-29, 01:51:00,VALID,917.682,VALID,0,VALID,97.1074,VALID,-0.0679233,VALID,20.8383,VALID,120,VALID,0,
2000-04-29, 01:52:00,VALID,917.675,VALID,0,VALID,96.9878,VALID,-0.0339617,VALID,20.8348,VALID,107,VALID,0,
2000-04-29, 01:53:00,VALID,917.661,VALID,0,VALID,96.867,VALID,0.0169808,VALID,20.8405,VALID,64,VALID,0,
2000-04-29, 01:54:00,VALID,917.637,VALID,0,VALID,96.7729,VALID,0.0169808,VALID,20.8397,VALID,121,VALID,0,
2000-04-29, 01:55:00,VALID,917.634,VALID,0,VALID,96.7691,VALID,0.0679233,VALID,20.8561,VALID,121,VALID,0,
2000-04-29, 01:56:00,VALID,917.615,VALID,0,VALID,96.764,VALID,0.0339617,VALID,20.8618,VALID,121,VALID,0,
2000-04-29, 01:57:00,VALID,917.591,VALID,0,VALID,96.7615,VALID,0.0679233,VALID,20.8855,VALID,120,VALID,0,
2000-04-29, 01:58:00,VALID,917.571,VALID,0,VALID,96.7653,VALID,0,VALID,20.8984,VALID,110,VALID,0,
2000-04-29, 01:59:00,VALID,917.53,VALID,0,VALID,96.6089,VALID,0.0339617,VALID,20.8852,VALID,92,VALID,0.148838,
2000-04-29, 02:00:00,VALID,917.522,VALID,0,VALID,96.4436,VALID,0.0509425,VALID,20.8524,VALID,93,VALID,1.07111,
2000-04-29, 02:01:00,VALID,917.506,VALID,0,VALID,96.455,VALID,0.0339617,VALID,20.8502,VALID,94,VALID,0.920397,
2000-04-29, 02:02:00,VALID,917.504,VALID,0,VALID,96.5377,VALID,0.0169808,VALID,20.8305,VALID,90,VALID,0.890008,
2000-04-29, 02:03:00,VALID,917.496,VALID,0,VALID,96.6318,VALID,0,VALID,20.8079,VALID,102,VALID,0.902845,
2000-04-29, 02:04:00,VALID,917.48,VALID,0,VALID,96.6865,VALID,0,VALID,20.785,VALID,92,VALID,0.536058,
2000-04-29, 02:05:00,VALID,917.49,VALID,0,VALID,96.7945,VALID,0,VALID,20.7952,VALID,100,VALID,0.424403,
2000-04-29, 02:06:00,VALID,917.49,VALID,0,VALID,96.9204,VALID,0,VALID,20.7783,VALID,99,VALID,0.755345,
2000-04-29, 02:07:00,VALID,917.499,VALID,0,VALID,96.9535,VALID,0,VALID,20.7759,VALID,101,VALID,0.692356,
2000-04-29, 02:08:00,VALID,917.505,VALID,0,VALID,97.0082,VALID,0.0169808,VALID,20.7689,VALID,105,VALID,0.625217,
2000-04-29, 02:09:00,VALID,917.501,VALID,0,VALID,97.1074,VALID,0.0169808,VALID,20.7691,VALID,104,VALID,0.764106,
2000-04-29, 02:10:00,VALID,917.481,VALID,0,VALID,97.1849,VALID,0,VALID,20.7791,VALID,93,VALID,1,
2000-04-29, 02:11:00,VALID,917.47,VALID,0,VALID,97.2638,VALID,0.0169808,VALID,20.7786,VALID,99,VALID,0.892887,
2000-04-29, 02:12:00,VALID,917.454,VALID,0,VALID,97.2828,VALID,0,VALID,20.7793,VALID,98,VALID,0.708116,
2000-04-29, 02:13:00,VALID,917.447,VALID,0,VALID,97.2943,VALID,0,VALID,20.7632,VALID,98,VALID,0.573438,
2000-04-29, 02:14:00,VALID,917.457,VALID,0,VALID,97.3134,VALID,0,VALID,20.7532,VALID,101,VALID,0.922903,
2000-04-29, 02:15:00,VALID,917.439,VALID,0,VALID,97.3795,VALID,-0.0339617,VALID,20.7366,VALID,98,VALID,0.958333,
2000-04-29, 02:16:00,VALID,917.442,VALID,0,VALID,97.4431,VALID,0,VALID,20.7406,VALID,94,VALID,0.818555,
2000-04-29, 02:17:00,VALID,917.445,VALID,0,VALID,97.4545,VALID,-0.0169808,VALID,20.7408,VALID,104,VALID,1.07792,
2000-04-29, 02:18:00,VALID,917.445,VALID,0,VALID,97.5015,VALID,0,VALID,20.7304,VALID,95,VALID,1.18298,
2000-04-29, 02:19:00,VALID,917.448,VALID,0,VALID,97.5473,VALID,0,VALID,20.743,VALID,95,VALID,1.1873,
2000-04-29, 02:20:00,VALID,917.448,VALID,0,VALID,97.5448,VALID,0,VALID,20.7368,VALID,95,VALID,0.795272,
2000-04-29, 02:21:00,VALID,917.448,VALID,0,VALID,97.5003,VALID,-0.0169808,VALID,20.7214,VALID,88,VALID,1.1867,
2000-04-29, 02:22:00,VALID,917.469,VALID,0,VALID,97.4227,VALID,0.0509425,VALID,20.6819,VALID,84,VALID,1.42808,
2000-04-29, 02:23:00,VALID,917.467,VALID,0,VALID,97.4164,VALID,0.101885,VALID,20.6582,VALID,89,VALID,1.42207,
2000-04-29, 02:24:00,VALID,917.463,VALID,0,VALID,97.4685,VALID,0.118866,VALID,20.6448,VALID,53,VALID,0.943359,
2000-04-29, 02:25:00,VALID,917.469,VALID,0,VALID,97.5206,VALID,0.101885,VALID,20.6222,VALID,79,VALID,0.884115,
2000-04-29, 02:26:00,VALID,917.469,VALID,0,VALID,97.5664,VALID,0.101885,VALID,20.616,VALID,83,VALID,1.01246,
2000-04-29, 02:27:00,VALID,917.473,VALID,0,VALID,97.6236,VALID,0.101885,VALID,20.5993,VALID,96,VALID,1.10979,
2000-04-29, 02:28:00,VALID,917.471,VALID,0,VALID,97.6694,VALID,0.101885,VALID,20.616,VALID,78,VALID,0.914063,
2000-04-29, 02:29:00,VALID,917.463,VALID,0,VALID,97.6936,VALID,0.101885,VALID,20.6125,VALID,92,VALID,1.06926,
2000-04-29, 02:30:00,VALID,917.482,VALID,0,VALID,97.7355,VALID,0.101885,VALID,20.6189,VALID,93,VALID,0.855252,
2000-04-29, 02:31:00,VALID,917.484,VALID,0,VALID,97.6974,VALID,0.101885,VALID,20.6227,VALID,96,VALID,0.934827,
2000-04-29, 02:32:00,VALID,917.495,VALID,0,VALID,97.6681,VALID,0.118866,VALID,20.6192,VALID,93,VALID,0.981841,
2000-04-29, 02:33:00,VALID,917.508,VALID,0,VALID,97.6491,VALID,0.0849042,VALID,20.6259,VALID,99,VALID,1.43636,
2000-04-29, 02:34:00,VALID,917.508,VALID,0,VALID,97.6313,VALID,0.101885,VALID,20.6192,VALID,92,VALID,1.33945,
2000-04-29, 02:35:00,VALID,917.513,VALID,0,VALID,97.6198,VALID,0.101885,VALID,20.6227,VALID,95,VALID,1.23499,
2000-04-29, 02:36:00,VALID,917.53,VALID,0,VALID,97.5588,VALID,0.101885,VALID,20.6162,VALID,77,VALID,1.22508,
2000-04-29, 02:37:00,VALID,917.524,VALID,0,VALID,97.4901,VALID,0.0509425,VALID,20.6108,VALID,89,VALID,1.15449,
2000-04-29, 02:38:00,VALID,917.526,VALID,0,VALID,97.466,VALID,0,VALID,20.6143,VALID,92,VALID,1.31661,
2000-04-29, 02:39:00,VALID,917.523,VALID,0,VALID,97.4863,VALID,0,VALID,20.5912,VALID,97,VALID,1.42701,
2000-04-29, 02:40:00,VALID,917.527,VALID,0,VALID,97.5499,VALID,0,VALID,20.6178,VALID,110,VALID,0.6873,
2000-04-29, 02:41:00,VALID,917.522,VALID,0,VALID,97.5346,VALID,0.0169808,VALID,20.6014,VALID,69,VALID,0.100911,
2000-04-29, 02:42:00,VALID,917.521,VALID,0,VALID,97.5092,VALID,0,VALID,20.6043,VALID,85,VALID,0.137458,
2000-04-29, 02:43:00,VALID,917.526,VALID,0,VALID,97.5779,VALID,0.0169808,VALID,20.6307,VALID,86,VALID,0.373598,
2000-04-29, 02:44:00,VALID,917.533,VALID,0,VALID,97.6096,VALID,0.0169808,VALID,20.6272,VALID,99,VALID,0.652549,
2000-04-29, 02:45:00,VALID,917.544,VALID,0,VALID,97.6363,VALID,0,VALID,20.6302,VALID,98,VALID,0.436061,
2000-04-29, 02:46:00,VALID,917.566,VALID,0,VALID,97.6516,VALID,0.0169808,VALID,20.6501,VALID,99,VALID,0.120144,
2000-04-29, 02:47:00,VALID,917.588,VALID,0,VALID,97.6859,VALID,0,VALID,20.6657,VALID,99,VALID,0,
2000-04-29, 02:48:00,VALID,917.615,VALID,0,VALID,97.6643,VALID,0,VALID,20.6824,VALID,101,VALID,0,
2000-04-29, 02:49:00,VALID,917.64,VALID,0,VALID,97.616,VALID,0,VALID,20.6789,VALID,100,VALID,0,
2000-04-29, 02:50:00,VALID,917.666,VALID,0,VALID,97.5931,VALID,0.0169808,VALID,20.6851,VALID,93,VALID,0.165264,
2000-04-29, 02:51:00,VALID,917.692,VALID,0,VALID,97.5842,VALID,0,VALID,20.6789,VALID,67,VALID,0.578325,
2000-04-29, 02:52:00,VALID,917.718,VALID,0,VALID,97.5804,VALID,0.0339617,VALID,20.6851,VALID,101,VALID,1.27365,
2000-04-29, 02:53:00,VALID,917.725,VALID,0,VALID,97.644,VALID,0.0339617,VALID,20.6752,VALID,97,VALID,1.16365,
2000-04-29, 02:54:00,VALID,917.747,VALID,0,VALID,97.7088,VALID,0,VALID,20.6814,VALID,97,VALID,1.40785,
2000-04-29, 02:55:00,VALID,917.768,VALID,0,VALID,97.7521,VALID,0.0339617,VALID,20.6752,VALID,95,VALID,1.14603,
2000-04-29, 02:56:00,VALID,917.788,VALID,0,VALID,97.6402,VALID,0.0169808,VALID,20.6386,VALID,99,VALID,1.23529,
2000-04-29, 02:57:00,VALID,917.785,VALID,0,VALID,97.6033,VALID,0.0339617,VALID,20.6232,VALID,91,VALID,1.51049,
2000-04-29, 02:58:00,VALID,917.798,VALID,0,VALID,97.6541,VALID,0.0509425,VALID,20.617,VALID,98,VALID,1.53484,
2000-04-29, 02:59:00,VALID,917.823,VALID,0,VALID,97.6325,VALID,0.0169808,VALID,20.5944,VALID,92,VALID,1.72461,
2000-04-29, 03:00:00,VALID,917.831,VALID,0,VALID,97.6986,VALID,-0.0169808,VALID,20.5946,VALID,92,VALID,1.16536,
2000-04-29, 03:01:00,VALID,917.842,VALID,0,VALID,97.6656,VALID,0,VALID,20.5521,VALID,84,VALID,1.18092,
2000-04-29, 03:02:00,VALID,917.846,VALID,0,VALID,97.7165,VALID,0.0339617,VALID,20.5327,VALID,91,VALID,1.60773,
2000-04-29, 03:03:00,VALID,917.851,VALID,0.2,VALID,97.7635,VALID,0.0339617,VALID,20.523,VALID,93,VALID,1.52713,
2000-04-29, 03:04:00,VALID,917.854,VALID,0,VALID,97.7686,VALID,0.0339617,VALID,20.5007,VALID,120,VALID,1.07835,
2000-04-29, 03:05:00,VALID,917.855,VALID,0,VALID,97.8881,VALID,0.0169808,VALID,20.5037,VALID,97,VALID,1.19901,
2000-04-29, 03:06:00,VALID,917.868,VALID,0,VALID,97.9606,VALID,0.0339617,VALID,20.5037,VALID,94,VALID,1.82432,
2000-04-29, 03:07:00,VALID,917.874,VALID,0.2,VALID,98.0026,VALID,-0.0339617,VALID,20.4751,VALID,87,VALID,1.23457,
2000-04-29, 03:08:00,VALID,917.892,VALID,0,VALID,97.7126,VALID,-0.0849042,VALID,20.3566,VALID,39,VALID,0.840049,
2000-04-29, 03:09:00,VALID,917.903,VALID,0.2,VALID,97.6694,VALID,-0.0679233,VALID,20.3016,VALID,72,VALID,0.835732,
2000-04-29, 03:10:00,VALID,917.899,VALID,0,VALID,97.7584,VALID,-0.101885,VALID,20.279,VALID,97,VALID,0.627604,
2000-04-29, 03:11:00,VALID,917.915,VALID,0.2,VALID,97.8512,VALID,-0.0849042,VALID,20.2497,VALID,84,VALID,1.01062,
2000-04-29, 03:12:00,VALID,917.918,VALID,0,VALID,97.8868,VALID,-0.0679233,VALID,20.2308,VALID,97,VALID,1.34515,
2000-04-29, 03:13:00,VALID,917.903,VALID,0,VALID,97.8309,VALID,-0.0679233,VALID,20.1759,VALID,75,VALID,1.14729,
2000-04-29, 03:14:00,VALID,917.902,VALID,0.2,VALID,97.9186,VALID,-0.0849042,VALID,20.16,VALID,92,VALID,0.751953,
2000-04-29, 03:15:00,VALID,917.902,VALID,0,VALID,98.0433,VALID,-0.0849042,VALID,20.16,VALID,69,VALID,0.450521,
2000-04-29, 03:16:00,VALID,917.88,VALID,0.2,VALID,98.0687,VALID,-0.0679233,VALID,20.1145,VALID,79,VALID,0.877387,
2000-04-29, 03:17:00,VALID,917.866,VALID,0.2,VALID,98.1552,VALID,-0.0849042,VALID,20.108,VALID,79,VALID,0.808488,
2000-04-29, 03:18:00,VALID,917.856,VALID,0.2,VALID,98.1615,VALID,-0.101885,VALID,20.0757,VALID,89,VALID,0.95991,
2000-04-29, 03:19:00,VALID,917.84,VALID,0,VALID,98.145,VALID,-0.0679233,VALID,20.0372,VALID,45,VALID,0.984809,
2000-04-29, 03:20:00,VALID,917.82,VALID,0.2,VALID,98.1806,VALID,-0.0849042,VALID,19.9984,VALID,83,VALID,0.765203,
2000-04-29, 03:21:00,VALID,917.797,VALID,0.2,VALID,98.323,VALID,-0.0849042,VALID,20.0022,VALID,85,VALID,1.18099,
2000-04-29, 03:22:00,VALID,917.791,VALID,0,VALID,98.426,VALID,0,VALID,19.9942,VALID,68,VALID,0.72903,
2000-04-29, 03:23:00,VALID,917.768,VALID,0.2,VALID,98.4196,VALID,0,VALID,19.9582,VALID,90,VALID,1.41132,
2000-04-29, 03:24:00,VALID,917.747,VALID,0.2,VALID,98.4527,VALID,0,VALID,19.9326,VALID,74,VALID,2.08479,
2000-04-29, 03:25:00,VALID,917.722,VALID,0,VALID,98.3879,VALID,0.0169808,VALID,19.8548,VALID,80,VALID,1.87168,
2000-04-29, 03:26:00,VALID,917.698,VALID,0.2,VALID,98.351,VALID,0.0169808,VALID,19.7869,VALID,86,VALID,1.57216,
2000-04-29, 03:27:00,VALID,917.686,VALID,0.2,VALID,98.2251,VALID,0,VALID,19.687,VALID,62,VALID,1.69489,
2000-04-29, 03:28:00,VALID,917.645,VALID,0.2,VALID,98.1221,VALID,0.0169808,VALID,19.5578,VALID,85,VALID,1.61406,
2000-04-29, 03:29:00,VALID,917.626,VALID,0.2,VALID,98.2035,VALID,0.0169808,VALID,19.5086,VALID,103,VALID,2.15419,
2000-04-29, 03:30:00,VALID,917.602,VALID,0.2,VALID,98.1895,VALID,0,VALID,19.4381,VALID,106,VALID,1.72902,
2000-04-29, 03:31:00,VALID,917.574,VALID,0,VALID,98.1997,VALID,0,VALID,19.367,VALID,106,VALID,1.45974,
2000-04-29, 03:32:00,VALID,917.558,VALID,0.2,VALID,98.2925,VALID,0.0169808,VALID,19.3285,VALID,113,VALID,1.20681,
2000-04-29, 03:33:00,VALID,917.544,VALID,0.2,VALID,98.2582,VALID,0.0169808,VALID,19.2639,VALID,115,VALID,1.57137,
2000-04-29, 03:34:00,VALID,917.514,VALID,0,VALID,98.1285,VALID,0.0169808,VALID,19.1705,VALID,96,VALID,1.374,
2000-04-29, 03:35:00,VALID,917.504,VALID,0.2,VALID,98.1285,VALID,0,VALID,19.1024,VALID,94,VALID,0.88014,
2000-04-29, 03:36:00,VALID,917.499,VALID,0,VALID,98.2315,VALID,0.0169808,VALID,19.0766,VALID,98,VALID,0.85259,
2000-04-29, 03:37:00,VALID,917.494,VALID,0.2,VALID,98.3853,VALID,0.0339617,VALID,19.0803,VALID,80,VALID,0.81989,
2000-04-29, 03:38:00,VALID,917.491,VALID,0.2,VALID,98.4235,VALID,0.0169808,VALID,19.0574,VALID,83,VALID,0.860243,
2000-04-29, 03:39:00,VALID,917.505,VALID,0,VALID,98.3777,VALID,0.0339617,VALID,19.0025,VALID,82,VALID,1.2008,
2000-04-29, 03:40:00,VALID,917.497,VALID,0.2,VALID,98.2798,VALID,0.0339617,VALID,18.9218,VALID,97,VALID,1.38507,